Regional Weather Roundup
Issued by NWS

Home | Current Version | Previous Version | Graphics & Text | Print | Product List | Glossary On
Versions: 1 2 3 4 5 6 7 8 9 10 11 12 13 14 15 16 17 18 19 20 21 22 23 24 25 26 27 28 29 30 31 32 33 34 35 36 37 38 39 40 41 42 43 44 45 46 47 48 49 50
000
ASUS45 KBOU 290407
RWRCO

WEATHER ROUNDUP FOR COLORADO
NATIONAL WEATHER SERVICE DENVER/BOULDER CO
1000 PM MDT MON JUL 28 2014

NOTE: "FAIR" INDICATES FEW OR NO CLOUDS BELOW 12000 FEET WITH NO
SIGNIFICANT WEATHER AND/OR OBSTRUCTIONS TO VISIBILITY.

COZ001>005-013-030-031-290500-
...NORTHWEST COLORADO...

CITY           SKY/WX    TMP DP  RH WIND       PRES   REMARKS
CRAIG          CLOUDY    61  50  67 W6        30.34R
HAYDEN         CLOUDY    68  46  45 N3        30.36R
MEEKER         CLOUDY    66  52  60 W3        30.36R
MOUNT WERNER   NOT AVBL
STEAMBOAT SPGS CLOUDY    69  48  46 CALM      30.38R
WALDEN         MOCLDY    55  45  67 SE5       30.48R
$$

COZ006>008-011-290500-
...WEST CENTRAL VALLEYS...

CITY           SKY/WX    TMP DP  RH WIND       PRES   REMARKS
GRAND JUNCTION CLOUDY    73  54  51 NE18G25   30.24R
MONTROSE       CLOUDY    69  55  60 S10       30.37R
EAGLE          CLOUDY    64  54  68 CALM      30.42R
RIFLE          CLOUDY    65  59  81 SE5       30.32R
DELTA          CLOUDY    78  50  37 SE18G33   30.29R
NUCLA          NOT AVBL
$$

COZ017>023-064>068-290500-
...SOUTHWEST COLORADO...

CITY           SKY/WX    TMP DP  RH WIND       PRES   REMARKS
DURANGO        CLOUDY    60  57  89 NE5       30.43R
CORTEZ         LGT RAIN  63  62  97 NE10      30.35S
PAGOSA SPRINGS DRIZZLE   59  58  94 CALM      30.51S
TELLURIDE      LGT RAIN  54  52  94 E6        30.58F
WOLF CREEK PAS NOT AVBL
$$

COZ009-010-012-014-032>034-037-058>063-290500-
...CENTRAL COLORADO...

CITY           SKY/WX    TMP DP  RH WIND       PRES   REMARKS
ASPEN          LGT RAIN  57  53  86 SE10      30.47F
BUENA VISTA    DRIZZLE   57  54  89 CALM      30.53R
COPPER MTN     DRIZZLE   52  39  62 S14G26    30.78R
BERTHOUD PASS  MOCLDY    45  32  61 E6        30.83R
COTTONWOOD PAS LGT RAIN  54  46  76 NW3       30.64S
GUNNISON       CLOUDY    61  50  67 NE8       30.53R
KREMMLING      CLOUDY    64  45  48 SW8       30.45R
LEADVILLE      LGT RAIN  50  49  96 CALM      30.64R
MONARCH PASS   DRIZZLE   45  41  87 S10       30.88S
SALIDA         CLOUDY    61  55  80 W5        30.57S
SUNLIGHT       CLOUDY    52  46  82 SE6       30.67S
WILKERSON PASS CLOUDY    45  41  87 SW7       30.74S
$$

COZ069>075-290500-
...SAN LUIS VALLEY/SANGRE DE CRISTO MOUNTAINS...

CITY           SKY/WX    TMP DP  RH WIND       PRES   REMARKS
ALAMOSA        CLOUDY    56  55  97 N7        30.49R
LA VETA PASS   RAIN      46  45  93 W5        30.66F
SAGUACHE       HVY RAIN  55  54  94 N5        30.56R
$$

COZ035-036-038>040-290500-
...NORTHERN COLORADO FRONT RANGE...

CITY           SKY/WX    TMP DP  RH WIND       PRES   REMARKS
DENVER INTL AP MOCLDY    68  58  70 SE10      30.29R
DMNS CITY PARK   N/A     70  53  56 S5        30.28S
AURORA         MOCLDY    68  60  74 S12       30.32R
FRONT RANGE AP NOT AVBL
ERIE MUNI ARPT MOCLDY    69  56  63 CALM      30.27R
BOULDER MUN AP MOCLDY    70  59  68 NW3       30.29R
CENTENNIAL     MOCLDY    65  57  75 S12       30.33R
BROOMFIELD     MOCLDY    72  55  56 VRB3      30.31R
FORT COLLINS   CLOUDY    72  55  56 W6        30.29R
LONGMONT       CLOUDY    72  60  65 N9        30.30R
$$

COZ041-046-047-076>085-087-088-290500-
...PIKES PEAK/PALMER DIVIDE AND SOUTHERN FOOTHILLS...

CITY           SKY/WX    TMP DP  RH WIND       PRES   REMARKS
COLO. SPRINGS  CLOUDY    66  59  78 SE6       30.38R
A. F. ACADEMY  CLOUDY    62  59  89 N3        30.40R
ELLICOTT       CLOUDY    66  62  87 CALM      30.38R
FALCON         CLOUDY    62  59  91 CALM      30.44R
FORT CARSON    CLOUDY    65  59  81 SE6       30.35R
LIMON          PTCLDY    64  54  69 S6        30.33R
MONUMENT HILL  MOCLDY    59  55  88 S7        30.42R
TRINIDAD       LGT RAIN  64  59  83 W8        30.36S
$$

COZ042>045-048>051-090-091-290500-
...NORTHEAST COLORADO...

CITY           SKY/WX    TMP DP  RH WIND       PRES   REMARKS
GREELEY ARPT   CLOUDY    72  57  60 NE9       30.27R
AKRON          CLOUDY    73  53  49 S7        30.29R
BURLINGTON     MOCLDY    67  59  75 S7        30.28R
WRAY             N/A     76  51  42 S7        30.25R
STERLING       CLOUDY    72  64  78 N3        30.23S
HOLYOKE        CLOUDY    73  54  49 S7        30.24R
FORT MORGAN    CLOUDY    73  56  54 S3        30.27F
$$

COZ086-089-092>099-290500-
...SOUTHEAST COLORADO...

CITY           SKY/WX    TMP DP  RH WIND       PRES   REMARKS
PUEBLO         CLOUDY    70  59  68 S3        30.28R
LA JUNTA       CLOUDY    71  65  81 E6        30.25R
LAMAR          CLOUDY    71  61  70 S8        30.23R
SPRINGFIELD      N/A     65  63  93 S9        30.29R
$$



USA.gov is the U.S. government's official web portal to all federal, state and local government web resources and services.